THORAD AGENA D DEB, 4676

Orbit data source: Space-Track

THORAD AGENA D DEB, 4676 is space debris in SSO originally from a launch on Wed, 08 Apr 1970 UTC launched from the Air Force Western Test Range (AFWTR). Debris objects in space refer to the collection of defunct objects orbiting the Earth. Examples of debris include non-operational satellites, rocket bodies, and fragments generated from explosions, collisions, or faulty payload assembly.

Loading next visibility...
Identifier
4676, 1970-025AZ
Orbit
SSO
Country
Flag of USUS
Related business
Manufacturer
Unknown
Mission
Spacecraft
Bus & Motor
Unknown
Mass
Unknown
Launch date (UTC)
1970-04-08 (56 years ago)
Launch vehicle
Unknown
Launch site
Air Force Western Test Range (AFWTR)
Object type
Payload
Rocket body
Debris
Shape & HBR
Unknown shape, 0.3 m
Radar Cross Section
Medium (>0.1 m² and <1 m²)

Expand to show TLE details & history
Last TLE update: 20 hours ago

TLE from 20 hours ago
0 THORAD AGENA D DEB
1 04676U 70025AZ  25355.08495391  .00000109  00000-0  22473-3 0  9997
2 04676 100.1243  29.3012 0005269  82.6579 339.7901 13.55535623750385
Epoch: 2025-12-21T02:02Z
TLE epoch observation values (Epoch: 2025-12-21T02:02:20.017Z)
Latitude
60.85833°
Longitude
-109.76418°
Altitude
1,058.574 km
Speed
7.33 km/s
True Right ascension
00h 42m 53s
True Declination
60° 43' 04"
Sunlit
Object was in daylight at epoch
Visualization orbit readout
Latitude
Unknown
Longitude
Unknown
Altitude
Unknown
Speed
Unknown
Apparent Right ascension
Unknown
Apparent Declination
Unknown
Sunlit
N/A
Visualization observer readout
Local Sidereal Time
21:34:35
Azimuth
Unknown
Elevation
Unknown
Doppler factor
Unknown
Orbital elements
Apogee altitude
1,053.191 km
Perigee altitude
1,045.364 km
Semi-major axis
7,427.414 km
Eccentricity
0.00053
Inclination
100.1243°
RAAN
29.3012°
Arg. of periapsis
82.6579°
True anomaly
339.76923°
Mean anomaly
339.7901°
Eccentric anomaly
339.77967°
Mean motion
3.39068 °/min
Orbital period
106.17 mins
BSTAR
0.00022473
Loading maneuver chart data...
Computing Atmospheric mass density...
Loading historical data...
Loading historical data...
Loading historical data...
Loading historical data...
Loading historical data...
Loading historical data...
Loading historical data...

Documentation

Showing up to 5 results
|